Flag for India Weather past 2 weeks in Mumbai, Maharashtra, India

Now
81 °F

Broken clouds.


Feels Like: 88 °F
Forecast: 80 / 85 °F
Wind: 8 mph from Southwest

Location: Bombay / Santacruz

Current Time: Aug 28, 2014 at 4:38:04 PM

Latest Report: Aug 28, 2014 at 3:40 PM


Visibility: 2 mi

Pressure: 29.65 "Hg

Humidity: 94%

Dew point: 79 °F

Location of MumbaiLocation

Historic Weather in Mumbai — Graph

°F

Mumbai temperature yesterday

Maximum temperature yesterday: 81 °F (at 10:40 AM)
Minimum temperature yesterday: 75 °F (at 8:40 AM)
Average temperature yesterday: 79 °F

Past Weeks' High & Low Weather Summary

 TemperatureHumidityPressure
High90 °F (Aug 23, 1:40 PM)100% (Aug 14, 6:40 PM)29.86 "Hg (Aug 14, 6:40 PM)
Low75 °F (Aug 27, 8:40 AM)66% (Aug 17, 12:40 PM)29.65 "Hg (Aug 21, 3:10 PM)
Average82 °F87%29.74 "Hg
* Reported Aug 13 1:40 PM — Aug 28 2:10 PM, Mumbai, Weather by CustomWeather, © 2014

Note: Actual official high and low records may vary slightly from our data, if they occured in-between our weather recording intervals... More about our weather records

Advertising

Mumbai weather history for previous 24 hours

 ConditionsComfort  
Time TempWeatherWind HumidityBarometerVisibility
2:10 PM
Aug 28
81 °FBroken clouds.8 mph89%29.68 "Hg2 mi
1:40 PM81 °FBroken clouds.10 mph89%29.71 "Hg2 mi
1:10 PM82 °FBroken clouds.8 mph84%29.71 "Hg2 mi
12:40 PM82 °FBroken clouds.9 mph84%29.71 "Hg2 mi
12:10 PM82 °FBroken clouds.8 mph84%29.71 "Hg2 mi
11:40 AM82 °FBroken clouds.6 mph84%29.74 "Hg2 mi
11:10 AM82 °FBroken clouds.No wind84%29.74 "Hg2 mi
10:10 AM81 °FBroken clouds.6 mph89%29.74 "Hg2 mi
9:40 AM81 °FBroken clouds.5 mph89%29.74 "Hg2 mi
9:10 AM79 °FScattered showers. Broken clouds.5 mph94%29.74 "Hg1 mi
8:40 AM77 °FScattered showers. Broken clouds.6 mph94%29.74 "Hg1 mi
7:40 AM77 °FBroken clouds.5 mph100%29.71 "Hg1 mi
6:40 AM77 °FPartly cloudy.5 mph100%29.71 "Hg2 mi
6:10 AM77 °FPartly cloudy.3 mph100%29.71 "Hg2 mi
5:40 AM77 °FPartly cloudy.No wind100%29.68 "Hg2 mi
5:10 AM77 °FPartly cloudy.No wind94%29.68 "Hg2 mi
4:40 AM77 °FMostly cloudy.No wind94%29.68 "Hg2 mi
3:10 AM79 °FPartly cloudy.3 mph94%29.68 "Hg2 mi
2:40 AM79 °FPartly cloudy.5 mph94%29.68 "Hg2 mi
2:10 AM79 °FPartly cloudy.5 mph94%29.71 "Hg2 mi
1:40 AM79 °FPartly cloudy.5 mph94%29.71 "Hg2 mi
1:10 AM79 °FPartly cloudy.5 mph94%29.71 "Hg2 mi
12:40 AM79 °FPartly cloudy.5 mph94%29.71 "Hg2 mi
11:40 PM
Aug 27
81 °FPartly cloudy.5 mph89%29.74 "Hg2 mi
11:10 PM81 °FPartly cloudy.6 mph89%29.74 "Hg2 mi
10:40 PM81 °FPartly cloudy.5 mph84%29.74 "Hg2 mi
9:40 PM81 °FPartly cloudy.3 mph84%29.74 "Hg2 mi
9:10 PM81 °FPartly cloudy.3 mph79%29.71 "Hg2 mi
8:10 PM81 °FPartly cloudy.No wind84%29.71 "Hg1 mi
7:40 PM81 °FPartly cloudy.5 mph84%29.68 "Hg1 mi
7:10 PM81 °FBroken clouds.5 mph79%29.68 "Hg2 mi
6:40 PM81 °FBroken clouds.5 mph79%29.68 "Hg2 mi
6:10 PM81 °FBroken clouds.3 mph79%29.68 "Hg2 mi
5:40 PM81 °FBroken clouds.6 mph79%29.68 "Hg2 mi
5:10 PM81 °FBroken clouds.8 mph79%29.68 "Hg2 mi
4:40 PM81 °FBroken clouds.7 mph84%29.68 "Hg2 mi
4:10 PM81 °FBroken clouds.10 mph84%29.68 "Hg2 mi
Weather by CustomWeather, © 2014

See weather overviewHow to use our weather pages